COSMOS 2251 DEB

Satellite information

Favourite Embed

Satellite Type and Status

DEBRISIN ORBIT

Key statistics

Satellite COSMOS 2251 DEB at a glance.

Uptime

11651

Days in orbit

Revolutions

≈ 14.5

Per day

Orbit

LEO

Low Earth Orbit

Inclination

74.1

Latest

Satellite identification and parameters

Extended collection of information and parameters for COSMOS 2251 DEB.

Object identification

Identified? True

Debris? True

Object name: COSMOS 2251 DEB

International designator: 1993-036XF

Object number (NORAD): 34634

Object ID (CCSDS): 34634

Country: COMMONWEALTH OF INDEPENDENT STATES (CIS)

Current information (Y/N): Y

RCS size: SMALL

Orbital parameters

Period: 98.981 minutes

Inclination: 74.0515 deg

SMA: 7088.087 km

Apoapsis: 744.096 km

Periapsis: 675.808 km

RAAN: 87.4509 deg

Eccentricy: 0.0048171

Argument of periapsis: 249.461 deg

Mean anomaly: 168.4505 deg

Mean motion: 14.54819868 rev/day

Mean motion (dot): 0.00001879 rev/day2

B* drag term: 0.00043807 1/REarth

Two-line elements (TLE)

Creation date: May 9, 2025, 2:46 a.m.

Reference frame: TEME

Reference center: EARTH

Epoch: May 8, 2025, 4:35 p.m. UTC

TLE line 0: 0 COSMOS 2251 DEB

TLE line 1: 1 34634U 93036XF 25128.69118197 .00001879 00000-0 43807-3 0 9991

TLE line 2: 2 34634 74.0515 87.4509 0048171 249.4610 168.4505 14.54819868856107

Live tracking on map

Real-time ground track for satellite COSMOS 2251 DEB.

In-orbit conjunctions

A list of the most updated potential collisions computed for object COSMOS 2251 DEB.

Target Orbit TCA Probability of collision Miss distance Type
NOAA 16 DEB SSO 2024-09-02 13:30:03 0.0001493271 108.0 (m) DEBRIS

Associated space launch

Military communications satellite. Destroyed in a collision with Iridium 33.

COSMOS 2251 DEB was lifted into orbit during the mission ‘Kosmos-3M | Strela-2M 51’, on board a Kosmos-3M space rocket.

The launch took place on June 16, 1993, 4:17 a.m. from 132/1 (132L).

For more information about the launch, click the button.

Launch to space Kosmos-3M | Strela-2M 51
Kosmos-3M | Strela-2M 51

Agency: N/A

Status: Launch Successful

Launch date: June 16, 1993, 4:17 a.m. UTC

Rocket: Kosmos-3M

Launch pad: 132/1 (132L)

Location: Plesetsk Cosmodrome, Russian Federation

...

Latest news about this satellite

There are no fresh news available about this satellite. Check back as we update our databases every day.


Newsletter sign-up

Weekly statistics, charts and insights to help you stay on top of the space industry.